Location: Ostrava
(49.8330°N, 18.2830°E)
Time: 20:45:25
(UTC+02:00)

Vanguard 2 Rocket - Visible Passes

Search period start: 28 September 2016 00:00
Search period end: 08 October 2016 00:00
Orbit: 556 x 3327 km, 32.9° (Epoch: 27 September)

Date Brightness Start Highest point End Pass type
(mag) Time Alt. Az. Time Alt. Az. Time Alt. Az.
30 Sep 10.3 06:10:38 10° SSW 06:17:28 16° SSE 06:22:45 10° SE visible
01 Oct 10.5 05:11:36 10° S 05:17:49 14° SSE 05:22:56 10° SE visible
02 Oct 10.7 04:14:14 10° SSE 04:18:01 11° SSE 04:21:26 10° SE visible
03 Oct 10.2 05:22:13 10° SSW 05:32:16 21° SSE 05:39:39 10° ESE visible
04 Oct 10.4 04:22:40 10° S 04:32:22 18° SSE 04:39:56 10° ESE visible
05 Oct 10.6 03:24:13 10° S 03:32:20 15° SSE 03:39:11 10° ESE visible
05 Oct 10.0 05:34:19 10° SW 05:46:41 27° SSE 05:55:13 10° ESE visible
06 Oct 10.8 02:28:42 10° SSE 02:32:15 11° SE 02:35:36 10° SE visible
06 Oct 10.2 04:33:56 10° SSW 04:46:40 25° SSE 04:55:58 10° ESE visible
07 Oct 10.4 03:37:12 14° S 03:46:29 22° SSE 03:56:08 10° ESE visible
07 Oct 9.8 05:47:11 10° SW 06:01:04 32° S 06:10:18 10° ESE visible
